Location: Marne
(34.0056°N, 117.9064°W)
Time: 03:18:53
(UTC+00:00)

USA 234 - Pass Details

Date: 18 January 2020
Orbit: 1100 x 1107 km, 123.0° (Epoch: 09 February)

Event Time Altitude Azimuth Distance (km) Brightness Sun altitude
Rises 02:00:08 0° 151° (SSE) 3,899 6.0 -11.1°
Reaches altitude 10° 02:02:40 10° 156° (SSE) 2,945 5.4 -11.6°
Maximum altitude 02:08:59 52° 231° (SW) 1,335 4.1 -12.8°
Drops below altitude 10° 02:15:19 10° 307° (NW) 2,960 6.0 -14.1°
Sets 02:17:54 0° 312° (NW) 3,921 6.6 -14.6°
